Weather in Novouzensk

Russia / Saratov Oblast     50°27′58″N   48°07′55″E
temp.,
°C
wind,
m/s
gust,
m/s
humid.,
%
clouds,
%
prec.,
mm/h
press.,
hPa
HPBL,
m
7 may, fri
fri701:00+12sse485463 0.0 1018135
04:00+10sse485584 0.0 1018134
07:00+11sse3956100 0.0 1018247
10:00+16s6741100 0.0 1018687
13:00+19s5539100 0.0 10172082
16:00+20s5534100 0.0 10162312
19:00+18s3544100 0.0 1015114
22:00+15ssw3348100 0.0 101634
8 may, sat
sat801:00+13s335246 0.0 101630
04:00+14s3546100 0.0 101692
07:00+14s245372 0.0 1016138
10:00+19s45423 0.0 1016736
13:00+22ssw56415 0.0 10152209
16:00+22sw663524 0.0 10141929
19:00+20sw3544100 0.0 1014158
22:00+15wsw345555 0.0 101556
9 may, sun
sun901:00+13ssw115492 0.0 101410
04:00+14se334852 0.0 101436
07:00+15se485476 0.0 1013185
10:00+20sse5747100 0.0 1013527
13:00+23s7936100 0.0 10121621
16:00+23s7830100 0.0 10111935
19:00+21ese4541100 0.0 101177
22:00+18ese51248100 0.0 1011240
10 may, mon
mon1001:00+16ese4851100 0.0 1011137
04:00+15e41051100 0.0 1011181
07:00+16e81752100 0.0 1012358
10:00+21ese81544100 0.0 1012764
13:00+25ese81437100 0.0 10132345
16:00+21sse41046100 0.0 1014377
19:00+21e61443100 0.0 1014484
22:00+16s3582100 0.3 1017244
11 may, tue
tue1101:00+15sse3387100 0.3 1017124
04:00+11sw5686100 0.4 1019315
07:00+11wsw448444 0.1 1022420
10:00+14nnw21654 0.1 1023670
13:00+19ne345646 0.0 10231240
16:00+21se5952100 0.1 10211709
19:00+17sse51368100 0.4 1023831
22:00+15ese3883100 1.7 1022327